,,,PA_Meas_PMT16A,,PR_Meas_QMR101_102,,RH_Meas_QMH101,,SR_Meas_QMS101,,TA_Meas_QMH101,,GenWind,,GenWind,
date,time,status,PA,status,PR,status,RH,status,SR,status,TA,status,DirAvg,status,SpdAvg,
2008-07-09, 00:00:04,VALID,1010.15,VALID,0,VALID,91.5929,VALID,0,VALID,24.3176,VALID,33,VALID,0.932813,
2008-07-09, 00:01:04,VALID,1010.13,VALID,0,VALID,91.6692,VALID,0,VALID,24.2183,VALID,32,VALID,1.04805,
2008-07-09, 00:02:04,VALID,1010.05,VALID,0,VALID,91.9132,VALID,0,VALID,24.1599,VALID,9,VALID,0.888672,
2008-07-09, 00:03:04,VALID,1010,VALID,0,VALID,92.3174,VALID,0,VALID,24.1227,VALID,316,VALID,0.485547,
2008-07-09, 00:04:04,VALID,1010.01,VALID,0.5,VALID,92.7978,VALID,0,VALID,24.0624,VALID,355,VALID,0.164453,
2008-07-09, 00:05:04,VALID,1009.99,VALID,0,VALID,92.691,VALID,0.105969,VALID,23.9845,VALID,38,VALID,0.798437,
2008-07-09, 00:06:04,VALID,1009.99,VALID,0,VALID,92.6834,VALID,0,VALID,23.9668,VALID,25,VALID,0.98125,
2008-07-09, 00:07:04,VALID,1010.04,VALID,0,VALID,92.7063,VALID,0.105969,VALID,23.8871,VALID,64,VALID,1.26289,
2008-07-09, 00:08:04,VALID,1010.04,VALID,0,VALID,92.8207,VALID,0,VALID,23.8871,VALID,78,VALID,1.21406,
2008-07-09, 00:09:04,VALID,1010.08,VALID,0,VALID,92.8817,VALID,0.105969,VALID,23.8676,VALID,65,VALID,1.55547,
2008-07-09, 00:10:04,VALID,1010.13,VALID,0,VALID,92.9961,VALID,0.105969,VALID,23.8676,VALID,81,VALID,1.22617,
2008-07-09, 00:11:04,VALID,1010.16,VALID,0,VALID,93.1867,VALID,0.105969,VALID,23.8871,VALID,60,VALID,0.39375,
2008-07-09, 00:12:04,VALID,1010.16,VALID,0,VALID,93.3697,VALID,0.105969,VALID,23.8676,VALID,99,VALID,0.738281,
2008-07-09, 00:13:04,VALID,1010.18,VALID,0,VALID,93.2935,VALID,0,VALID,23.8481,VALID,83,VALID,0.45625,
2008-07-09, 00:14:04,VALID,1010.19,VALID,0,VALID,93.4231,VALID,0.105969,VALID,23.8871,VALID,69,VALID,0.597656,
2008-07-09, 00:15:04,VALID,1010.2,VALID,0,VALID,93.3773,VALID,0,VALID,23.8676,VALID,55,VALID,0.49375,
2008-07-09, 00:16:04,VALID,1010.16,VALID,0,VALID,93.1333,VALID,0.105969,VALID,23.8481,VALID,81,VALID,1.52344,
2008-07-09, 00:17:04,VALID,1010.16,VALID,0,VALID,93.0037,VALID,0.105969,VALID,23.8481,VALID,87,VALID,1.4707,
2008-07-09, 00:18:04,VALID,1010.15,VALID,0,VALID,93.0113,VALID,0.105969,VALID,23.8481,VALID,84,VALID,1.84961,
2008-07-09, 00:19:04,VALID,1010.16,VALID,0,VALID,93.0342,VALID,0.105969,VALID,23.8481,VALID,77,VALID,0.973828,
2008-07-09, 00:20:04,VALID,1010.19,VALID,0,VALID,93.2935,VALID,0.105969,VALID,23.8481,VALID,88,VALID,0.870703,
2008-07-09, 00:21:04,VALID,1010.21,VALID,0,VALID,93.1715,VALID,0.105969,VALID,23.8091,VALID,83,VALID,1.45469,
2008-07-09, 00:22:04,VALID,1010.2,VALID,0,VALID,93.2096,VALID,0.105969,VALID,23.8091,VALID,99,VALID,1.13125,
2008-07-09, 00:23:04,VALID,1010.23,VALID,0,VALID,93.3468,VALID,0.105969,VALID,23.8091,VALID,60,VALID,0.849219,
2008-07-09, 00:24:04,VALID,1010.24,VALID,0,VALID,93.3773,VALID,0.105969,VALID,23.7896,VALID,49,VALID,0.886719,
2008-07-09, 00:25:04,VALID,1010.22,VALID,0,VALID,93.2935,VALID,0.105969,VALID,23.7507,VALID,64,VALID,1.2793,
2008-07-09, 00:26:04,VALID,1010.22,VALID,0,VALID,93.2401,VALID,0,VALID,23.7543,VALID,70,VALID,1.05469,
2008-07-09, 00:27:04,VALID,1010.23,VALID,0,VALID,93.4612,VALID,0,VALID,23.7525,VALID,59,VALID,0.946484,
2008-07-09, 00:28:04,VALID,1010.27,VALID,0,VALID,93.2401,VALID,0,VALID,23.7135,VALID,69,VALID,1.48164,
2008-07-09, 00:29:04,VALID,1010.31,VALID,0,VALID,93.263,VALID,0,VALID,23.7117,VALID,79,VALID,1.62617,
2008-07-09, 00:30:04,VALID,1010.34,VALID,0,VALID,93.3163,VALID,0,VALID,23.7135,VALID,88,VALID,2.26602,
2008-07-09, 00:31:04,VALID,1010.36,VALID,0,VALID,93.3621,VALID,0,VALID,23.6727,VALID,84,VALID,1.42461,
2008-07-09, 00:32:04,VALID,1010.43,VALID,0,VALID,93.5222,VALID,0,VALID,23.6727,VALID,86,VALID,1.22773,
2008-07-09, 00:33:04,VALID,1010.44,VALID,0.5,VALID,93.2325,VALID,0,VALID,23.6356,VALID,79,VALID,2.08008,
2008-07-09, 00:34:04,VALID,1010.45,VALID,0,VALID,93.5451,VALID,0.105969,VALID,23.655,VALID,83,VALID,1.03125,
2008-07-09, 00:35:04,VALID,1010.45,VALID,0,VALID,93.4917,VALID,0,VALID,23.5753,VALID,92,VALID,1.2793,
2008-07-09, 00:36:04,VALID,1010.48,VALID,0,VALID,93.4231,VALID,0.105969,VALID,23.5363,VALID,90,VALID,1.31953,
2008-07-09, 00:37:04,VALID,1010.52,VALID,0,VALID,93.6976,VALID,0.105969,VALID,23.5169,VALID,94,VALID,0.916797,
2008-07-09, 00:38:04,VALID,1010.56,VALID,0.5,VALID,93.9417,VALID,0,VALID,23.4974,VALID,113,VALID,1.26211,
2008-07-09, 00:39:04,VALID,1010.63,VALID,0,VALID,94.0789,VALID,0.105969,VALID,23.5381,VALID,134,VALID,1.72695,
2008-07-09, 00:40:04,VALID,1010.61,VALID,0,VALID,93.995,VALID,0,VALID,23.4797,VALID,143,VALID,1.67656,
2008-07-09, 00:41:04,VALID,1010.59,VALID,0,VALID,94.1094,VALID,0,VALID,23.4779,VALID,114,VALID,1.42031,
2008-07-09, 00:42:04,VALID,1010.52,VALID,0,VALID,94.1323,VALID,0,VALID,23.4602,VALID,138,VALID,1.12852,
2008-07-09, 00:43:04,VALID,1010.52,VALID,0.5,VALID,94.2314,VALID,0,VALID,23.3805,VALID,128,VALID,0.66875,
2008-07-09, 00:44:04,VALID,1010.49,VALID,0,VALID,94.3001,VALID,0,VALID,23.3628,VALID,117,VALID,1.09023,
2008-07-09, 00:45:04,VALID,1010.46,VALID,0,VALID,94.4602,VALID,0,VALID,23.3238,VALID,157,VALID,0.884375,
2008-07-09, 00:46:04,VALID,1010.4,VALID,0.5,VALID,94.5365,VALID,0,VALID,23.3043,VALID,167,VALID,1.09414,
2008-07-09, 00:47:04,VALID,1010.37,VALID,0.5,VALID,94.5517,VALID,0,VALID,23.2459,VALID,154,VALID,0.931641,
2008-07-09, 00:48:04,VALID,1010.28,VALID,1,VALID,94.6661,VALID,0,VALID,23.2069,VALID,168,VALID,1.17891,
2008-07-09, 00:49:04,VALID,1010.22,VALID,0.5,VALID,94.6737,VALID,0,VALID,23.129,VALID,148,VALID,1.28398,
2008-07-09, 00:50:04,VALID,1010.18,VALID,0.5,VALID,94.7881,VALID,0,VALID,23.09,VALID,142,VALID,1.46719,
2008-07-09, 00:51:04,VALID,1010.18,VALID,0,VALID,94.9483,VALID,0,VALID,23.1095,VALID,104,VALID,1.32734,
2008-07-09, 00:52:04,VALID,1010.22,VALID,0.5,VALID,95.0474,VALID,0,VALID,23.09,VALID,91,VALID,1.92695,
2008-07-09, 00:53:04,VALID,1010.32,VALID,0,VALID,95.1389,VALID,0,VALID,23.129,VALID,88,VALID,1.59063,
2008-07-09, 00:54:04,VALID,1010.48,VALID,0.5,VALID,95.2152,VALID,0,VALID,23.1095,VALID,95,VALID,1.46563,
2008-07-09, 00:55:04,VALID,1010.58,VALID,0.5,VALID,95.2685,VALID,0,VALID,23.129,VALID,115,VALID,1.10898,
2008-07-09, 00:56:04,VALID,1010.56,VALID,0,VALID,95.3448,VALID,0,VALID,23.1485,VALID,109,VALID,2.25977,
2008-07-09, 00:57:04,VALID,1010.61,VALID,0.5,VALID,95.3448,VALID,0,VALID,23.129,VALID,93,VALID,2.82773,
2008-07-09, 00:58:04,VALID,1010.64,VALID,0,VALID,95.3677,VALID,0,VALID,23.1095,VALID,105,VALID,2.51523,
2008-07-09, 00:59:04,VALID,1010.65,VALID,0,VALID,95.3829,VALID,0,VALID,23.129,VALID,112,VALID,2.41523,
2008-07-09, 01:00:04,VALID,1010.6,VALID,0,VALID,95.3753,VALID,0,VALID,23.129,VALID,110,VALID,2.53984,
2008-07-09, 01:01:04,VALID,1010.63,VALID,0,VALID,95.4211,VALID,0,VALID,23.1485,VALID,127,VALID,1.40039,
2008-07-09, 01:02:04,VALID,1010.56,VALID,0,VALID,95.4211,VALID,0,VALID,23.129,VALID,143,VALID,2.11914,
2008-07-09, 01:03:04,VALID,1010.49,VALID,0.5,VALID,95.4516,VALID,0,VALID,23.1485,VALID,139,VALID,1.24141,
2008-07-09, 01:04:04,VALID,1010.45,VALID,0,VALID,95.4516,VALID,0,VALID,23.1307,VALID,127,VALID,1.55039,
2008-07-09, 01:05:04,VALID,1010.38,VALID,0,VALID,95.4821,VALID,0,VALID,23.1095,VALID,141,VALID,1.29414,
2008-07-09, 01:06:04,VALID,1010.27,VALID,0,VALID,95.5049,VALID,0,VALID,23.1095,VALID,167,VALID,1.04375,
2008-07-09, 01:07:04,VALID,1010.22,VALID,0,VALID,95.5126,VALID,0,VALID,23.1095,VALID,150,VALID,0.985156,
2008-07-09, 01:08:04,VALID,1010.22,VALID,0,VALID,95.5049,VALID,0,VALID,23.0705,VALID,110,VALID,1.28125,
2008-07-09, 01:09:04,VALID,1010.22,VALID,0,VALID,95.5049,VALID,0,VALID,23.0511,VALID,155,VALID,1.28711,
2008-07-09, 01:10:04,VALID,1010.25,VALID,0,VALID,95.5354,VALID,0,VALID,23.0511,VALID,127,VALID,1.1375,
2008-07-09, 01:11:04,VALID,1010.28,VALID,0.5,VALID,95.4287,VALID,0,VALID,22.9536,VALID,137,VALID,1.95039,
2008-07-09, 01:12:04,VALID,1010.26,VALID,0,VALID,95.4973,VALID,0,VALID,22.9926,VALID,113,VALID,0.892187,
2008-07-09, 01:13:04,VALID,1010.29,VALID,0,VALID,95.4668,VALID,0,VALID,22.9147,VALID,105,VALID,1.50195,
2008-07-09, 01:14:04,VALID,1010.26,VALID,0,VALID,95.1999,VALID,0,VALID,22.7394,VALID,113,VALID,1.27305,
2008-07-09, 01:15:04,VALID,1010.19,VALID,0,VALID,95.2304,VALID,0,VALID,22.7394,VALID,126,VALID,1.1043,
2008-07-09, 01:16:04,VALID,1010.13,VALID,0,VALID,95.2685,VALID,0,VALID,22.7394,VALID,87,VALID,0.7875,
2008-07-09, 01:17:04,VALID,1010.07,VALID,0,VALID,95.2685,VALID,0,VALID,22.7004,VALID,135,VALID,1.18047,
2008-07-09, 01:18:04,VALID,1009.95,VALID,0,VALID,95.1542,VALID,0,VALID,22.6047,VALID,151,VALID,0.419141,
2008-07-09, 01:19:04,VALID,1009.91,VALID,0,VALID,94.9788,VALID,0,VALID,22.4667,VALID,181,VALID,1.33672,
2008-07-09, 01:20:04,VALID,1009.88,VALID,0,VALID,94.7195,VALID,0,VALID,22.2914,VALID,167,VALID,1.55273,
2008-07-09, 01:21:04,VALID,1009.84,VALID,0,VALID,94.6356,VALID,0.105969,VALID,22.2329,VALID,172,VALID,1.36484,
2008-07-09, 01:22:04,VALID,1009.83,VALID,0,VALID,94.3382,VALID,0.105969,VALID,22.0966,VALID,159,VALID,1.70156,
2008-07-09, 01:23:04,VALID,1009.82,VALID,0,VALID,94.4068,VALID,0.105969,VALID,22.056,VALID,142,VALID,1.27969,
2008-07-09, 01:24:04,VALID,1009.81,VALID,0,VALID,94.5288,VALID,0.105969,VALID,22.017,VALID,146,VALID,0.809766,
2008-07-09, 01:25:04,VALID,1009.83,VALID,0,VALID,94.6051,VALID,0.105969,VALID,21.9975,VALID,134,VALID,1.25156,
2008-07-09, 01:26:04,VALID,1009.84,VALID,0,VALID,94.6966,VALID,0,VALID,22.017,VALID,144,VALID,1.30625,
2008-07-09, 01:27:04,VALID,1009.84,VALID,0,VALID,94.7957,VALID,0.105969,VALID,22.0365,VALID,153,VALID,1.32813,
2008-07-09, 01:28:04,VALID,1009.83,VALID,0,VALID,94.9025,VALID,0.105969,VALID,22.0365,VALID,158,VALID,1.13203,
2008-07-09, 01:29:04,VALID,1009.82,VALID,0.5,VALID,94.8949,VALID,0,VALID,21.9975,VALID,148,VALID,0.787109,
2008-07-09, 01:30:04,VALID,1009.78,VALID,0,VALID,94.9788,VALID,0,VALID,22.0187,VALID,120,VALID,1.07578,
2008-07-09, 01:31:04,VALID,1009.78,VALID,0,VALID,94.9406,VALID,0,VALID,21.9603,VALID,103,VALID,1.22344,
2008-07-09, 01:32:04,VALID,1009.76,VALID,0,VALID,94.7042,VALID,0,VALID,21.9018,VALID,115,VALID,0.853906,
2008-07-09, 01:33:04,VALID,1009.72,VALID,0,VALID,94.7805,VALID,0,VALID,21.9213,VALID,102,VALID,0.521484,
2008-07-09, 01:34:04,VALID,1009.67,VALID,0,VALID,94.8568,VALID,0,VALID,21.9408,VALID,87,VALID,1.08594,
2008-07-09, 01:35:04,VALID,1009.64,VALID,0,VALID,94.8873,VALID,0,VALID,21.9408,VALID,55,VALID,0.907422,
2008-07-09, 01:36:04,VALID,1009.63,VALID,0,VALID,94.872,VALID,0,VALID,21.9213,VALID,32,VALID,0.878125,
2008-07-09, 01:37:04,VALID,1009.59,VALID,0,VALID,94.8644,VALID,0,VALID,21.9424,VALID,27,VALID,1.04648,
2008-07-09, 01:38:04,VALID,1009.52,VALID,0,VALID,94.7119,VALID,0,VALID,21.9035,VALID,3,VALID,1.08672,
2008-07-09, 01:39:04,VALID,1009.45,VALID,0,VALID,94.5975,VALID,0,VALID,21.8434,VALID,358,VALID,0.808203,
2008-07-09, 01:40:04,VALID,1009.37,VALID,0,VALID,94.6966,VALID,0,VALID,21.8434,VALID,342,VALID,0.625,
2008-07-09, 01:41:04,VALID,1009.32,VALID,0,VALID,94.8796,VALID,0,VALID,21.8629,VALID,5,VALID,0.502344,
2008-07-09, 01:42:04,VALID,1009.29,VALID,0,VALID,95.1084,VALID,0,VALID,21.9018,VALID,19,VALID,0.622266,
2008-07-09, 01:43:04,VALID,1009.29,VALID,0,VALID,95.1465,VALID,0,VALID,21.9018,VALID,39,VALID,0.660547,
2008-07-09, 01:44:04,VALID,1009.25,VALID,0,VALID,95.1847,VALID,0,VALID,21.8824,VALID,39,VALID,0.364062,
2008-07-09, 01:45:04,VALID,1009.24,VALID,0,VALID,95.2304,VALID,0,VALID,21.8824,VALID,39,VALID,0.333984,
2008-07-09, 01:46:04,VALID,1009.23,VALID,0,VALID,95.2914,VALID,0,VALID,21.8418,VALID,38,VALID,0.177734,
2008-07-09, 01:47:04,VALID,1009.21,VALID,0,VALID,95.3295,VALID,0,VALID,21.8629,VALID,27,VALID,0.227344,
2008-07-09, 01:48:04,VALID,1009.22,VALID,0,VALID,95.4058,VALID,0,VALID,21.8629,VALID,338,VALID,0.0535156,
2008-07-09, 01:49:04,VALID,1009.22,VALID,0,VALID,95.4744,VALID,0,VALID,21.9018,VALID,338,VALID,0,
2008-07-09, 01:50:04,VALID,1009.19,VALID,0,VALID,95.4897,VALID,0,VALID,21.9018,VALID,338,VALID,0,
2008-07-09, 01:51:05,VALID,1009.19,VALID,0,VALID,95.5049,VALID,0,VALID,21.9018,VALID,337,VALID,0.299219,
2008-07-09, 01:52:05,VALID,1009.23,VALID,0,VALID,95.5126,VALID,0,VALID,21.8824,VALID,199,VALID,0.391797,
2008-07-09, 01:53:05,VALID,1009.25,VALID,0,VALID,95.4973,VALID,0,VALID,21.8418,VALID,195,VALID,0.453516,
2008-07-09, 01:54:05,VALID,1009.32,VALID,0,VALID,95.5431,VALID,0,VALID,21.8418,VALID,195,VALID,0.516016,
2008-07-09, 01:55:05,VALID,1009.42,VALID,0,VALID,95.4973,VALID,0,VALID,21.8434,VALID,195,VALID,0.65,
2008-07-09, 01:56:05,VALID,1009.52,VALID,0,VALID,95.5507,VALID,0,VALID,21.9018,VALID,186,VALID,1.24453,
2008-07-09, 01:57:05,VALID,1009.66,VALID,0,VALID,95.5126,VALID,0,VALID,21.8824,VALID,180,VALID,1.86563,
2008-07-09, 01:58:05,VALID,1009.8,VALID,0,VALID,95.5126,VALID,0,VALID,21.9424,VALID,176,VALID,2.06406,
2008-07-09, 01:59:05,VALID,1009.89,VALID,0,VALID,95.4897,VALID,0,VALID,21.9018,VALID,175,VALID,2.23906,
2008-07-09, 02:00:05,VALID,1009.95,VALID,0,VALID,95.3905,VALID,0,VALID,21.9213,VALID,173,VALID,2.69727,
2008-07-09, 02:01:05,VALID,1009.98,VALID,0,VALID,95.3982,VALID,0,VALID,21.9408,VALID,184,VALID,2.23125,
2008-07-09, 02:02:05,VALID,1009.99,VALID,0,VALID,95.2838,VALID,0,VALID,21.9408,VALID,186,VALID,2.2,
2008-07-09, 02:03:05,VALID,1009.94,VALID,0,VALID,95.1465,VALID,0,VALID,21.9213,VALID,207,VALID,1.57422,
2008-07-09, 02:04:05,VALID,1009.93,VALID,0,VALID,94.994,VALID,0,VALID,21.9002,VALID,187,VALID,1.88789,
2008-07-09, 02:05:05,VALID,1009.96,VALID,0,VALID,94.8262,VALID,0,VALID,21.9619,VALID,190,VALID,1.78984,
2008-07-09, 02:06:05,VALID,1010,VALID,0,VALID,94.811,VALID,0,VALID,21.9797,VALID,175,VALID,1.45977,
2008-07-09, 02:07:05,VALID,1010.03,VALID,0,VALID,94.7271,VALID,0,VALID,21.9603,VALID,158,VALID,2.03906,
2008-07-09, 02:08:05,VALID,1010.1,VALID,0,VALID,94.4831,VALID,0,VALID,21.9196,VALID,161,VALID,1.63359,
2008-07-09, 02:09:05,VALID,1010.16,VALID,0,VALID,94.5212,VALID,0,VALID,21.9603,VALID,147,VALID,1.26289,
2008-07-09, 02:10:05,VALID,1010.2,VALID,0,VALID,94.5822,VALID,0,VALID,21.9603,VALID,155,VALID,1.17461,
2008-07-09, 02:11:05,VALID,1010.26,VALID,0,VALID,94.6127,VALID,0,VALID,21.9408,VALID,167,VALID,0.974609,
2008-07-09, 02:12:05,VALID,1010.27,VALID,0,VALID,94.4297,VALID,0,VALID,21.9018,VALID,147,VALID,1.28086,
2008-07-09, 02:13:05,VALID,1010.3,VALID,0,VALID,94.3229,VALID,0,VALID,21.9018,VALID,192,VALID,1.16016,
2008-07-09, 02:14:05,VALID,1010.26,VALID,0,VALID,94.4755,VALID,0,VALID,21.9018,VALID,241,VALID,0.410547,
2008-07-09, 02:15:05,VALID,1010.25,VALID,0,VALID,94.5441,VALID,0,VALID,21.9213,VALID,262,VALID,0.400781,
2008-07-09, 02:16:05,VALID,1010.25,VALID,0,VALID,94.4831,VALID,0,VALID,21.9002,VALID,315,VALID,0.497266,
2008-07-09, 02:17:05,VALID,1010.31,VALID,0,VALID,94.3687,VALID,0,VALID,21.9018,VALID,315,VALID,0.258984,
2008-07-09, 02:18:05,VALID,1010.38,VALID,0,VALID,94.5898,VALID,0,VALID,21.9213,VALID,315,VALID,0.141016,
2008-07-09, 02:19:05,VALID,1010.42,VALID,0,VALID,94.5365,VALID,0,VALID,21.8629,VALID,112,VALID,0.674219,
2008-07-09, 02:20:05,VALID,1010.45,VALID,0,VALID,94.567,VALID,0,VALID,21.9018,VALID,146,VALID,0.898438,
2008-07-09, 02:21:05,VALID,1010.44,VALID,0,VALID,94.6737,VALID,0,VALID,21.9408,VALID,124,VALID,0.410547,
2008-07-09, 02:22:05,VALID,1010.42,VALID,0,VALID,94.8568,VALID,0,VALID,21.9603,VALID,124,VALID,0.257813,
2008-07-09, 02:23:05,VALID,1010.36,VALID,0,VALID,94.8491,VALID,0,VALID,21.9814,VALID,125,VALID,0.20625,
2008-07-09, 02:24:05,VALID,1010.32,VALID,0,VALID,94.8491,VALID,0,VALID,21.9408,VALID,125,VALID,0.003125,
2008-07-09, 02:25:05,VALID,1010.27,VALID,0,VALID,94.9178,VALID,0,VALID,21.9408,VALID,125,VALID,0.128516,
2008-07-09, 02:26:05,VALID,1010.24,VALID,0,VALID,94.994,VALID,0,VALID,21.9603,VALID,125,VALID,0.00117188,
2008-07-09, 02:27:05,VALID,1010.24,VALID,0,VALID,95.0169,VALID,0,VALID,21.9797,VALID,125,VALID,0.523438,
2008-07-09, 02:28:05,VALID,1010.22,VALID,0,VALID,95.0931,VALID,0,VALID,22.0204,VALID,125,VALID,0.397656,
2008-07-09, 02:29:05,VALID,1010.21,VALID,0,VALID,95.0626,VALID,0,VALID,21.9975,VALID,125,VALID,0.177344,
2008-07-09, 02:30:05,VALID,1010.22,VALID,0,VALID,95.0779,VALID,0.105969,VALID,21.9975,VALID,125,VALID,0.00507812,
2008-07-09, 02:31:05,VALID,1010.27,VALID,0,VALID,95.1542,VALID,0.105969,VALID,22.017,VALID,118,VALID,0.726172,
2008-07-09, 02:32:05,VALID,1010.26,VALID,0,VALID,95.1542,VALID,0.105969,VALID,21.9975,VALID,128,VALID,0.868359,
2008-07-09, 02:33:05,VALID,1010.24,VALID,0,VALID,95.1923,VALID,0.105969,VALID,22.017,VALID,129,VALID,0.538672,
2008-07-09, 02:34:05,VALID,1010.24,VALID,0,VALID,95.177,VALID,0.105969,VALID,22.0187,VALID,129,VALID,0.242969,
2008-07-09, 02:35:05,VALID,1010.21,VALID,0,VALID,95.1389,VALID,0.105969,VALID,22.017,VALID,57,VALID,0.478516,
2008-07-09, 02:36:05,VALID,1010.2,VALID,0,VALID,95.1389,VALID,0,VALID,22.017,VALID,1,VALID,0.992578,
2008-07-09, 02:37:05,VALID,1010.2,VALID,0,VALID,95.116,VALID,0.105969,VALID,21.9781,VALID,30,VALID,0.747656,
2008-07-09, 02:38:05,VALID,1010.21,VALID,0,VALID,95.1313,VALID,0.105969,VALID,21.9781,VALID,66,VALID,0.820703,
2008-07-09, 02:39:05,VALID,1010.23,VALID,0,VALID,95.1694,VALID,0.105969,VALID,21.9992,VALID,87,VALID,0.90625,
2008-07-09, 02:40:05,VALID,1010.21,VALID,0,VALID,95.1847,VALID,0.105969,VALID,21.9992,VALID,122,VALID,1.36914,
2008-07-09, 02:41:05,VALID,1010.21,VALID,0,VALID,95.2152,VALID,0.105969,VALID,22.0576,VALID,143,VALID,1.13359,
2008-07-09, 02:42:05,VALID,1010.17,VALID,0,VALID,95.0779,VALID,0.105969,VALID,21.9975,VALID,125,VALID,1.20508,
2008-07-09, 02:43:05,VALID,1010.14,VALID,0,VALID,94.9101,VALID,0.105969,VALID,21.9975,VALID,130,VALID,1.42734,
2008-07-09, 02:44:05,VALID,1010.08,VALID,0,VALID,94.8491,VALID,0,VALID,22.0187,VALID,93,VALID,1.24453,
2008-07-09, 02:45:05,VALID,1010.07,VALID,0,VALID,94.689,VALID,0,VALID,21.9992,VALID,73,VALID,1.26523,
2008-07-09, 02:46:05,VALID,1010.02,VALID,0,VALID,94.6203,VALID,0,VALID,22.0187,VALID,52,VALID,0.898438,
2008-07-09, 02:47:05,VALID,1009.98,VALID,0,VALID,94.6432,VALID,0,VALID,21.9992,VALID,52,VALID,0.473437,
2008-07-09, 02:48:05,VALID,1010,VALID,0,VALID,94.7119,VALID,0,VALID,21.9797,VALID,122,VALID,0.550391,
2008-07-09, 02:49:05,VALID,1010.02,VALID,0,VALID,94.7957,VALID,0,VALID,21.9992,VALID,145,VALID,0.423438,
2008-07-09, 02:50:05,VALID,1010.05,VALID,0,VALID,94.9101,VALID,0,VALID,22.0187,VALID,144,VALID,0.325781,
2008-07-09, 02:51:05,VALID,1010.06,VALID,0,VALID,94.9559,VALID,0,VALID,22.0204,VALID,143,VALID,0.164063,
2008-07-09, 02:52:05,VALID,1010.09,VALID,0,VALID,95.0321,VALID,0,VALID,22.0187,VALID,143,VALID,0.053125,
2008-07-09, 02:53:05,VALID,1010.08,VALID,0,VALID,95.1236,VALID,0,VALID,22.0187,VALID,143,VALID,0,
2008-07-09, 02:54:05,VALID,1010.07,VALID,0,VALID,95.1618,VALID,0,VALID,22.0593,VALID,143,VALID,0.350781,
2008-07-09, 02:55:05,VALID,1010.14,VALID,0,VALID,95.1618,VALID,0,VALID,22.0576,VALID,143,VALID,0.223438,
2008-07-09, 02:56:05,VALID,1010.16,VALID,0,VALID,95.1999,VALID,0,VALID,22.0771,VALID,143,VALID,0.337891,
2008-07-09, 02:57:05,VALID,1010.19,VALID,0,VALID,95.1923,VALID,0,VALID,22.0576,VALID,143,VALID,0.310937,
2008-07-09, 02:58:05,VALID,1010.23,VALID,0,VALID,95.2533,VALID,0,VALID,22.0983,VALID,144,VALID,0.232812,
2008-07-09, 02:59:05,VALID,1010.22,VALID,0,VALID,95.2457,VALID,0,VALID,22.0576,VALID,119,VALID,0.261328,
2008-07-09, 03:00:05,VALID,1010.28,VALID,0,VALID,95.2914,VALID,0,VALID,22.0771,VALID,119,VALID,0.01875,
2008-07-09, 03:01:05,VALID,1010.27,VALID,0,VALID,95.299,VALID,0,VALID,22.0771,VALID,119,VALID,0,
2008-07-09, 03:02:05,VALID,1010.3,VALID,0,VALID,95.3067,VALID,0,VALID,22.0576,VALID,136,VALID,0.486328,
2008-07-09, 03:03:05,VALID,1010.29,VALID,0,VALID,95.3372,VALID,0,VALID,22.0398,VALID,177,VALID,0.748438,
2008-07-09, 03:04:05,VALID,1010.34,VALID,0,VALID,95.3524,VALID,0,VALID,22.0576,VALID,167,VALID,0.980469,
2008-07-09, 03:05:05,VALID,1010.35,VALID,0,VALID,95.3448,VALID,0,VALID,22.0382,VALID,154,VALID,0.984766,
2008-07-09, 03:06:05,VALID,1010.38,VALID,0.5,VALID,95.3219,VALID,0,VALID,22.0187,VALID,159,VALID,1.17695,
2008-07-09, 03:07:05,VALID,1010.42,VALID,0,VALID,95.3219,VALID,0,VALID,22.0593,VALID,153,VALID,1.01094,
2008-07-09, 03:08:05,VALID,1010.42,VALID,0,VALID,95.3067,VALID,0.105969,VALID,22.0382,VALID,157,VALID,1.02422,
2008-07-09, 03:09:05,VALID,1010.46,VALID,0,VALID,95.3219,VALID,0,VALID,22.0771,VALID,146,VALID,1.14102,
2008-07-09, 03:10:05,VALID,1010.48,VALID,0,VALID,95.3372,VALID,0,VALID,22.0771,VALID,122,VALID,0.834766,
2008-07-09, 03:11:05,VALID,1010.49,VALID,0,VALID,95.3295,VALID,0.105969,VALID,22.1355,VALID,126,VALID,0.935156,
2008-07-09, 03:12:05,VALID,1010.49,VALID,0,VALID,95.3067,VALID,0,VALID,22.0771,VALID,126,VALID,1.46797,
2008-07-09, 03:13:05,VALID,1010.48,VALID,0,VALID,95.2609,VALID,0,VALID,22.0771,VALID,116,VALID,1.49805,
2008-07-09, 03:14:05,VALID,1010.5,VALID,0,VALID,95.238,VALID,0,VALID,22.0771,VALID,135,VALID,1.40391,
2008-07-09, 03:15:05,VALID,1010.48,VALID,0,VALID,95.2228,VALID,0.105969,VALID,22.1161,VALID,129,VALID,1.20625,
2008-07-09, 03:16:05,VALID,1010.48,VALID,0,VALID,95.238,VALID,0,VALID,22.1355,VALID,136,VALID,1.04336,
2008-07-09, 03:17:05,VALID,1010.47,VALID,0,VALID,95.2457,VALID,0,VALID,22.1355,VALID,139,VALID,1.08789,
2008-07-09, 03:18:05,VALID,1010.47,VALID,0,VALID,95.2762,VALID,0,VALID,22.1745,VALID,137,VALID,0.496094,
2008-07-09, 03:19:05,VALID,1010.47,VALID,0,VALID,95.2838,VALID,0,VALID,22.1745,VALID,120,VALID,0.6875,
2008-07-09, 03:20:05,VALID,1010.43,VALID,0,VALID,95.299,VALID,0,VALID,22.1745,VALID,115,VALID,0.417578,
2008-07-09, 03:21:05,VALID,1010.44,VALID,0,VALID,95.3295,VALID,0,VALID,22.194,VALID,95,VALID,0.639453,
2008-07-09, 03:22:05,VALID,1010.43,VALID,0,VALID,95.3067,VALID,0,VALID,22.194,VALID,90,VALID,1.03398,
2008-07-09, 03:23:05,VALID,1010.43,VALID,0,VALID,95.2762,VALID,0,VALID,22.194,VALID,79,VALID,0.68125,
2008-07-09, 03:24:05,VALID,1010.42,VALID,0,VALID,95.2457,VALID,0,VALID,22.2329,VALID,73,VALID,0.683203,
2008-07-09, 03:25:05,VALID,1010.45,VALID,0.5,VALID,95.2685,VALID,0,VALID,22.2329,VALID,100,VALID,0.927734,
2008-07-09, 03:26:05,VALID,1010.42,VALID,0,VALID,95.2762,VALID,0.105969,VALID,22.2524,VALID,82,VALID,0.639063,
2008-07-09, 03:27:05,VALID,1010.41,VALID,0,VALID,95.2838,VALID,0,VALID,22.2541,VALID,67,VALID,0.821094,
2008-07-09, 03:28:05,VALID,1010.4,VALID,0,VALID,95.2685,VALID,0,VALID,22.2312,VALID,69,VALID,0.844531,
2008-07-09, 03:29:05,VALID,1010.41,VALID,0,VALID,95.2152,VALID,0,VALID,22.1923,VALID,74,VALID,1.01289,
2008-07-09, 03:30:05,VALID,1010.41,VALID,0,VALID,95.1542,VALID,0,VALID,22.194,VALID,74,VALID,1.08984,
2008-07-09, 03:31:05,VALID,1010.41,VALID,0,VALID,95.1923,VALID,0,VALID,22.2329,VALID,58,VALID,0.827734,
2008-07-09, 03:32:05,VALID,1010.42,VALID,0,VALID,95.2152,VALID,0,VALID,22.194,VALID,44,VALID,0.935156,
2008-07-09, 03:33:05,VALID,1010.44,VALID,0,VALID,95.1999,VALID,0,VALID,22.1355,VALID,59,VALID,0.878906,
2008-07-09, 03:34:05,VALID,1010.44,VALID,0,VALID,95.1923,VALID,0,VALID,22.155,VALID,57,VALID,1.4543,
2008-07-09, 03:35:05,VALID,1010.44,VALID,0,VALID,95.238,VALID,0.105969,VALID,22.1355,VALID,51,VALID,1.01992,
2008-07-09, 03:36:05,VALID,1010.44,VALID,0,VALID,95.238,VALID,0,VALID,22.1355,VALID,61,VALID,0.987109,
2008-07-09, 03:37:05,VALID,1010.44,VALID,0,VALID,95.2457,VALID,0,VALID,22.1161,VALID,66,VALID,0.733203,
2008-07-09, 03:38:05,VALID,1010.47,VALID,0.5,VALID,95.2762,VALID,0,VALID,22.1161,VALID,96,VALID,0.600781,
2008-07-09, 03:39:05,VALID,1010.46,VALID,0,VALID,95.3219,VALID,0,VALID,22.155,VALID,105,VALID,0.592188,
2008-07-09, 03:40:05,VALID,1010.47,VALID,0,VALID,95.3067,VALID,0,VALID,22.1355,VALID,108,VALID,1.13437,
2008-07-09, 03:41:05,VALID,1010.52,VALID,0,VALID,95.2762,VALID,0,VALID,22.1161,VALID,113,VALID,1.14648,
2008-07-09, 03:42:05,VALID,1010.53,VALID,0,VALID,95.2609,VALID,0,VALID,22.1355,VALID,111,VALID,0.825781,
2008-07-09, 03:43:05,VALID,1010.57,VALID,0,VALID,95.299,VALID,0.105969,VALID,22.1728,VALID,122,VALID,0.872656,